Flag for Switzerland Weather past 2 weeks in Schwyz, Schwyz, Switzerland

Now
79 °F

Warm.


Feels Like: 80 °F
Forecast: 67 / 94 °F
Wind: 6 mph from North

Location: Altdorf

Current Time: Jul 1, 2015 at 2:21:05 PM

Latest Report: Jul 1, 2015 at 1:00 PM


Visibility: N/A

Pressure: 30.03 "Hg

Humidity: 57%

Dew point: 62 °F

Location of SchwyzLocation

Historic Weather in Schwyz — Graph

°F

Schwyz temperature yesterday

Maximum temperature yesterday: 84 °F (at 6:00 PM)
Minimum temperature yesterday: 57 °F (at 7:00 AM)
Average temperature yesterday: 70 °F

Past Weeks' High & Low Weather Summary

 TemperatureHumidityPressure
High84 °F (Jun 30, 6:00 PM)96% (Jun 19, 1:00 AM)30.23 "Hg (Jun 19, 1:00 AM)
Low50 °F (Jun 24, 8:00 AM)39% (Jun 30, 6:00 PM)29.73 "Hg (Jun 22, 11:00 PM)
Average63 °F74%30.09 "Hg
* Reported Jun 16 1:00 PM — Jul 1 1:00 PM, Schwyz, Weather by CustomWeather, © 2015

Note: Actual official high and low records may vary slightly from our data, if they occured in-between our weather recording intervals... More about our weather records

Advertising

Schwyz weather history for previous 24 hours

 ConditionsComfort  
Time TempWeatherWind HumidityBarometerVisibility
1:00 PM
Wed, Jul 1
79 °FWarm.6 mph57%30.03 "HgN/A
12:00 PM78 °FWarm.5 mph59%30.05 "HgN/A
11:00 AM76 °FPassing clouds.3 mph62%30.06 "Hg19 mi
10:00 AM74 °FMild.2 mph64%30.07 "HgN/A
9:00 AM70 °FMild.2 mph76%30.09 "HgN/A
8:00 AM65 °FSunny.No wind81%30.10 "Hg19 mi
7:00 AM62 °FMild.1 mph85%30.10 "HgN/A
6:00 AM64 °FMild.1 mph78%30.09 "HgN/A
5:00 AM62 °FClear.2 mph85%30.09 "Hg19 mi
4:00 AM64 °FMild.1 mph80%30.08 "HgN/A
3:00 AM63 °FMild.1 mph84%30.08 "HgN/A
2:00 AM64 °FClear.1 mph81%30.08 "Hg19 mi
1:00 AM67 °FMild.1 mph74%30.07 "HgN/A
12:00 AM69 °FMild.2 mph70%30.07 "HgN/A
11:00 PM
Tue, Jun 30
72 °FClear.3 mph58%30.06 "Hg19 mi
10:00 PM72 °FMild.3 mph62%30.05 "HgN/A
9:00 PM74 °FMild.3 mph59%30.02 "HgN/A
8:00 PM81 °FSunny.1 mph41%29.99 "Hg16 mi
6:00 PM84 °FPleasantly warm.3 mph39%29.97 "HgN/A
4:00 PM82 °FWarm.6 mph46%30.00 "HgN/A
3:00 PM81 °FWarm.6 mph55%30.02 "HgN/A
2:00 PM78 °FSunny.9 mph58%30.04 "Hg19 mi
Weather by CustomWeather, © 2015

See weather overviewHow to use our weather pages